Location: Alafon
(8.4500°N, 4.2333°E)
Time: 00:14:17
(UTC+00:00)

SL-24 R/B - Pass Details

Date: 05 July 2020
Orbit: 504 x 1003 km, 97.4° (Epoch: 06 August)

Event Time Altitude Azimuth Distance (km) Brightness Sun altitude
Rises 18:31:51 0° 14° (NNE) 3,336 7.9 -6.7°
Reaches altitude 10° 18:34:21 10° 16° (NNE) 2,326 7.1 -7.3°
Maximum altitude 18:39:26 74° 100° (E) 730 4.3 -8.5°
Drops below altitude 10° 18:43:50 10° 186° (S) 2,016 6.5 -9.4°
Sets 18:45:52 0° 187° (S) 2,857 7.3 -9.9°
